Weather History for Defiance, OH

Change the Weather History Date:

Thursday, January 10, 2013

  Actual Average Record
Temperature  
Mean Temperature 32 °F -  
Max Temperature 41 °F 27 °F 50 °F (1939)
Min Temperature 23 °F 13 °F -14 °F (1982)
Degree Days  
Heating Degree Days 33    
Moisture  
Dew Point 27 °F    
Average Humidity 81    
Maximum Humidity 92    
Minimum Humidity 60    
Precipitation  
Precipitation 0.03 in - - ()
Sea Level Pressure  
Sea Level Pressure 30.42 in    
Wind  
Wind Speed 4 mph (East)    
Max Wind Speed 12 mph    
Max Gust Speed 16 mph    
Visibility 9 miles    
Events Rain    
Averages and records for this station are not official NWS values.
T = Trace of Precipitation, MM = Missing Value Source: NWS Daily Summary

Daily Weather History Graph

Daily Weather History Graph

Search for Another Location

Airport:

Trip Planner

Search our weather history database for the weather conditions in past years. The results will help you decide how hot, cold, wet, or windy it might be!

Date:

Astronomy

Jan. 10, 2013 Rise Set
Actual Time 8:02 AM EST 5:28 PM EST
Civil Twilight 7:32 AM EST 5:58 PM EST
Nautical Twilight 6:57 AM EST 6:33 PM EST
Astronomical Twilight 6:24 AM EST 7:06 PM EST
Moon 6:41 AM EST (1/10) 4:35 PM EST (1/10)
Length of Visible Light 10h 26m
Length of Day
9h 25m
Waning Crescent, 2% of the Moon is Illuminated
Jan 10
Waning Crescent
Jan 11
New
Jan 18
First Quarter
Jan 26
Full
Feb 3
Last Quarter

Hourly Weather History & Observations

Time (EST) Temp. Windchill Dew Point Humidity Pressure Visibility Wind Dir Wind Speed Gust Speed Precip Events Conditions
12:53 AM 30.9 °F 26.2 °F 27.0 °F 85% 30.55 in 10.0 mi SSW 4.6 mph - N/A   Clear
1:53 AM 26.1 °F - 24.1 °F 92% 30.55 in 9.0 mi Calm Calm - N/A   Clear
2:53 AM 25.0 °F - 23.0 °F 92% 30.56 in 7.0 mi Calm Calm - N/A   Clear
3:53 AM 25.0 °F - 21.9 °F 88% 30.54 in 5.0 mi Calm Calm - N/A   Clear
4:53 AM 25.0 °F - 21.9 °F 88% 30.55 in 7.0 mi Calm Calm - N/A   Clear
5:53 AM 24.1 °F - 21.0 °F 88% 30.55 in 6.0 mi Calm Calm - N/A   Clear
6:53 AM 23.0 °F - 19.9 °F 88% 30.56 in 7.0 mi Calm Calm - N/A   Clear
7:53 AM 23.0 °F - 19.9 °F 88% 30.57 in 6.0 mi Calm Calm - N/A   Clear
8:53 AM 24.1 °F - 21.0 °F 88% 30.58 in 5.0 mi Calm Calm - N/A   Clear
9:53 AM 30.0 °F 26.5 °F 27.0 °F 88% 30.58 in 10.0 mi ENE 3.5 mph - N/A   Clear
10:53 AM - - - N/A% 30.54 in - North - - N/A   Unknown
11:53 AM - - - N/A% 30.50 in - North - - N/A   Unknown
12:53 PM 39.0 °F 31.8 °F 28.9 °F 67% 30.49 in 10.0 mi East 11.5 mph - N/A   Clear
1:53 PM 41.0 °F 36.4 °F 28.0 °F 60% 30.46 in 10.0 mi ESE 6.9 mph - N/A   Clear
3:53 PM 39.9 °F 34.5 °F 28.9 °F 65% 30.40 in 10.0 mi East 8.1 mph - N/A   Clear
4:53 PM 39.0 °F 33.4 °F 30.0 °F 70% 30.38 in 10.0 mi East 8.1 mph - N/A   Clear
5:53 PM 37.9 °F 32.7 °F 30.9 °F 76% 30.36 in 10.0 mi ESE 6.9 mph - 0.00 in   Overcast
6:53 PM 37.9 °F 32.7 °F 30.9 °F 76% 30.35 in 10.0 mi ESE 6.9 mph - 0.00 in Rain Light Rain
7:53 PM 37.9 °F 32.1 °F 30.9 °F 76% 30.31 in 10.0 mi East 8.1 mph - 0.00 in   Overcast
8:53 PM 37.9 °F 32.1 °F 30.9 °F 76% 30.27 in 10.0 mi ENE 8.1 mph - N/A   Overcast
9:21 PM 37.4 °F 30.8 °F 30.2 °F 75% 30.22 in 10.0 mi East 9.2 mph - 0.00 in Rain Light Rain
9:53 PM 37.9 °F 30.9 °F 30.9 °F 76% 30.23 in 10.0 mi NE 10.4 mph 16.1 mph 0.00 in   Overcast
10:53 PM 37.0 °F 31.0 °F 32.0 °F 82% 30.16 in 6.0 mi ESE 8.1 mph - 0.02 in Rain Light Rain
11:16 PM 37.4 °F 30.8 °F 33.8 °F 87% 30.14 in 9.0 mi East 9.2 mph - 0.01 in   Overcast
11:53 PM 37.9 °F 32.7 °F 33.1 °F 83% 30.12 in 10.0 mi East 6.9 mph - 0.01 in   Overcast